User: anonymous   Login
Location: Unspecified
(0.0000°N, 0.0000°E)
Time: 02:49:13
(UTC+00:00)
Language:

Picosat 3 - Orbit

View from above orbital plane
View from above orbital plane
View from above satellite
View from above satellite

Ground track
Ground track

The orbit data is extracted from the following two-line orbital elements,

1 26091U 00004J   17147.46273927 +.00000304 +00000-0 +96835-4 0  9994
2 26091 100.1838 233.4311 0029915 150.0073 210.2835 14.48609558910618
Epoch (UTC): 27 May 2017 11:06:20
Eccentricity: 0.0029915
inclination: 100.1838°
perigee height: 709 km
apogee height: 751 km
right ascension of ascending node: 233.4311°
argument of perigee: 150.0073°
revolutions per day: 14.48609558
mean anomaly at epoch: 210.2835°
orbit number at epoch: 91061

The dashed part of the orbit path shows where the satellite is in the earth's shadow,  

DLR